Location: Vihti�l�
(61.3833°N, 23.0667°E)
Time: 03:37:23
(UTC+00:00)

Lacrosse 5 - Pass Details

Date: 29 November 2020
Orbit: 713 x 726 km, 57.0° (Epoch: 18 January)

Event Time Altitude Azimuth Distance (km) Brightness Sun altitude
Exits shadow 04:32:07 - 223° (SW) 2,528 4.4 -16.9°
Reaches altitude 10° 04:33:04 10° 219° (SW) 2,191 4.1 -16.8°
Maximum altitude 04:37:38 36° 154° (SSE) 1,126 3.2 -16.3°
Drops below altitude 10° 04:42:14 10° 89° (E) 2,200 5.6 -15.8°
Sets 04:44:46 0° 81° (E) 3,123 6.4 -15.5°
